Year,Month,Day,Hour,Minute,Value (Times are PST for temperature in C)
2013,08,31,00,00,14.20
2013,08,31,00,01,14.20
2013,08,31,00,02,14.20
2013,08,31,00,03,14.20
2013,08,31,00,04,14.20
2013,08,31,00,05,14.20
2013,08,31,00,06,14.20
2013,08,31,00,07,14.20
2013,08,31,00,08,14.10
2013,08,31,00,09,14.10
2013,08,31,00,10,14.00
2013,08,31,00,11,14.00
2013,08,31,00,12,13.90
2013,08,31,00,13,13.90
2013,08,31,00,14,13.90
2013,08,31,00,15,13.90
2013,08,31,00,16,13.90
2013,08,31,00,17,13.90
2013,08,31,00,18,13.90
2013,08,31,00,19,13.90
2013,08,31,00,20,13.90
2013,08,31,00,21,13.80
2013,08,31,00,22,13.80
2013,08,31,00,23,13.80
2013,08,31,00,24,13.80
2013,08,31,00,25,13.80
2013,08,31,00,26,13.80
2013,08,31,00,27,13.80
2013,08,31,00,28,13.80
2013,08,31,00,29,13.80
2013,08,31,00,30,13.90
2013,08,31,00,31,13.90
2013,08,31,00,32,13.90
2013,08,31,00,33,13.90
2013,08,31,00,34,14.00
2013,08,31,00,35,14.00
2013,08,31,00,36,14.00
2013,08,31,00,37,14.00
2013,08,31,00,38,14.00
2013,08,31,00,39,14.00
2013,08,31,00,40,14.10
2013,08,31,00,41,14.10
2013,08,31,00,42,14.10
2013,08,31,00,43,14.10
2013,08,31,00,44,14.10
2013,08,31,00,45,14.10
2013,08,31,00,46,14.10
2013,08,31,00,47,14.10
2013,08,31,00,48,14.10
2013,08,31,00,49,14.10
2013,08,31,00,50,14.10
2013,08,31,00,51,14.10
2013,08,31,00,52,14.10
2013,08,31,00,53,14.00
2013,08,31,00,54,14.00
2013,08,31,00,55,14.00
2013,08,31,00,56,14.00
2013,08,31,00,57,14.00
2013,08,31,00,58,14.00
2013,08,31,00,59,14.00
2013,08,31,01,00,14.00
2013,08,31,01,01,14.00
2013,08,31,01,02,14.00
2013,08,31,01,03,14.00
2013,08,31,01,04,14.00
2013,08,31,01,05,14.00
2013,08,31,01,06,14.00
2013,08,31,01,07,14.00
2013,08,31,01,08,14.00
2013,08,31,01,09,13.90
2013,08,31,01,10,13.90
2013,08,31,01,11,13.90
2013,08,31,01,12,13.90
2013,08,31,01,13,13.90
2013,08,31,01,14,13.90
2013,08,31,01,15,13.90
2013,08,31,01,16,13.90
2013,08,31,01,17,13.90
2013,08,31,01,18,13.90
2013,08,31,01,19,13.90
2013,08,31,01,20,13.90
2013,08,31,01,21,13.90
2013,08,31,01,22,13.90
2013,08,31,01,23,13.90
2013,08,31,01,24,13.90
2013,08,31,01,25,13.90
2013,08,31,01,26,13.90
2013,08,31,01,27,13.90
2013,08,31,01,28,13.90
2013,08,31,01,29,13.90
2013,08,31,01,30,13.90
2013,08,31,01,31,14.00
2013,08,31,01,32,14.00
2013,08,31,01,33,14.00
2013,08,31,01,34,14.00
2013,08,31,01,35,14.00
2013,08,31,01,36,14.00
2013,08,31,01,37,14.00
2013,08,31,01,38,14.00
2013,08,31,01,39,14.00
2013,08,31,01,40,14.00
2013,08,31,01,41,14.10
2013,08,31,01,42,14.10
2013,08,31,01,43,14.10
2013,08,31,01,44,14.10
2013,08,31,01,45,14.10
2013,08,31,01,46,14.00
2013,08,31,01,47,14.00
2013,08,31,01,48,14.00
2013,08,31,01,49,14.00
2013,08,31,01,50,14.00
2013,08,31,01,51,14.00
2013,08,31,01,52,14.00
2013,08,31,01,53,14.00
2013,08,31,01,54,14.00
2013,08,31,01,55,14.00
2013,08,31,01,56,14.00
2013,08,31,01,57,14.00
2013,08,31,01,58,14.00
2013,08,31,01,59,14.00
2013,08,31,02,00,14.00
2013,08,31,02,01,14.00
2013,08,31,02,02,13.90
2013,08,31,02,03,13.90
2013,08,31,02,04,13.90
2013,08,31,02,05,13.80
2013,08,31,02,06,13.80
2013,08,31,02,07,13.80
2013,08,31,02,08,13.80
2013,08,31,02,09,13.80
2013,08,31,02,10,13.80
2013,08,31,02,11,13.80
2013,08,31,02,12,13.80
2013,08,31,02,13,13.80
2013,08,31,02,14,13.80
2013,08,31,02,15,13.70
2013,08,31,02,16,13.70
2013,08,31,02,17,13.70
2013,08,31,02,18,13.70
2013,08,31,02,19,13.70
2013,08,31,02,20,13.70
2013,08,31,02,21,13.70
2013,08,31,02,22,13.70
2013,08,31,02,23,13.70
2013,08,31,02,24,13.70
2013,08,31,02,25,13.70
2013,08,31,02,26,13.70
2013,08,31,02,27,13.70
2013,08,31,02,28,13.70
2013,08,31,02,29,13.70
2013,08,31,02,30,13.70
2013,08,31,02,31,13.70
2013,08,31,02,32,13.70
2013,08,31,02,33,13.70
2013,08,31,02,34,13.70
2013,08,31,02,35,13.70
2013,08,31,02,36,13.70
2013,08,31,02,37,13.60
2013,08,31,02,38,13.60
2013,08,31,02,39,13.60
2013,08,31,02,40,13.50
2013,08,31,02,41,13.50
2013,08,31,02,42,13.50
2013,08,31,02,43,13.40
2013,08,31,02,44,13.40
2013,08,31,02,45,13.40
2013,08,31,02,46,13.40
2013,08,31,02,47,13.40
2013,08,31,02,48,13.40
2013,08,31,02,49,13.40
2013,08,31,02,50,13.40
2013,08,31,02,51,13.40
2013,08,31,02,52,13.40
2013,08,31,02,53,13.40
2013,08,31,02,54,13.30
2013,08,31,02,55,13.30
2013,08,31,02,56,13.30
2013,08,31,02,57,13.30
2013,08,31,02,58,13.30
2013,08,31,02,59,13.30
2013,08,31,03,00,13.30
2013,08,31,03,01,13.30
2013,08,31,03,02,13.20
2013,08,31,03,03,13.20
2013,08,31,03,04,13.20
2013,08,31,03,05,13.20
2013,08,31,03,06,13.10
2013,08,31,03,07,13.10
2013,08,31,03,08,13.10
2013,08,31,03,09,13.00
2013,08,31,03,10,13.00
2013,08,31,03,11,13.00
2013,08,31,03,12,13.00
2013,08,31,03,13,13.00
2013,08,31,03,14,12.90
2013,08,31,03,15,12.90
2013,08,31,03,16,12.90
2013,08,31,03,17,12.90
2013,08,31,03,18,12.90
2013,08,31,03,19,12.90
2013,08,31,03,20,12.90
2013,08,31,03,21,12.90
2013,08,31,03,22,12.90
2013,08,31,03,23,12.90
2013,08,31,03,24,12.90
2013,08,31,03,25,12.90
2013,08,31,03,26,12.90
2013,08,31,03,27,12.90
2013,08,31,03,28,12.90
2013,08,31,03,29,12.90
2013,08,31,03,30,12.90
2013,08,31,03,31,12.90
2013,08,31,03,32,12.90
2013,08,31,03,33,12.90
2013,08,31,03,34,12.80
2013,08,31,03,35,12.80
2013,08,31,03,36,12.80
2013,08,31,03,37,12.80
2013,08,31,03,38,12.80
2013,08,31,03,39,12.80
2013,08,31,03,40,12.80
2013,08,31,03,41,12.80
2013,08,31,03,42,12.80
2013,08,31,03,43,12.80
2013,08,31,03,44,12.80
2013,08,31,03,45,12.80
2013,08,31,03,46,12.80
2013,08,31,03,47,12.70
2013,08,31,03,48,12.70
2013,08,31,03,49,12.70
2013,08,31,03,50,12.70
2013,08,31,03,51,12.70
2013,08,31,03,52,12.70
2013,08,31,03,53,12.70
2013,08,31,03,54,12.70
2013,08,31,03,55,12.70
2013,08,31,03,56,12.70
2013,08,31,03,57,12.60
2013,08,31,03,58,12.60
2013,08,31,03,59,12.60
2013,08,31,04,00,12.60
2013,08,31,04,01,12.60
2013,08,31,04,02,12.60
2013,08,31,04,03,12.60
2013,08,31,04,04,12.60
2013,08,31,04,05,12.50
2013,08,31,04,06,12.50
2013,08,31,04,07,12.60
2013,08,31,04,08,12.60
2013,08,31,04,09,12.60
2013,08,31,04,10,12.60
2013,08,31,04,11,12.70
2013,08,31,04,12,12.70
2013,08,31,04,13,12.70
2013,08,31,04,14,12.70
2013,08,31,04,15,12.70
2013,08,31,04,16,12.80
2013,08,31,04,17,12.80
2013,08,31,04,18,12.80
2013,08,31,04,19,12.80
2013,08,31,04,20,12.90
2013,08,31,04,21,12.90
2013,08,31,04,22,13.00
2013,08,31,04,23,13.00
2013,08,31,04,24,13.10
2013,08,31,04,25,13.10
2013,08,31,04,26,13.10
2013,08,31,04,27,13.10
2013,08,31,04,28,13.10
2013,08,31,04,29,13.10
2013,08,31,04,30,13.10
2013,08,31,04,31,13.10
2013,08,31,04,32,13.10
2013,08,31,04,33,13.10
2013,08,31,04,34,13.20
2013,08,31,04,35,13.20
2013,08,31,04,36,13.10
2013,08,31,04,37,13.10
2013,08,31,04,38,13.10
2013,08,31,04,39,13.10
2013,08,31,04,40,13.10
2013,08,31,04,41,13.10
2013,08,31,04,42,13.10
2013,08,31,04,43,13.10
2013,08,31,04,44,13.10
2013,08,31,04,45,13.10
2013,08,31,04,46,13.10
2013,08,31,04,47,13.10
2013,08,31,04,48,13.10
2013,08,31,04,49,13.10
2013,08,31,04,50,13.10
2013,08,31,04,51,13.00
2013,08,31,04,52,13.00
2013,08,31,04,53,13.00
2013,08,31,04,54,13.00
2013,08,31,04,55,13.00
2013,08,31,04,56,13.00
2013,08,31,04,57,13.00
2013,08,31,04,58,12.90
2013,08,31,04,59,12.90
2013,08,31,05,00,12.90
2013,08,31,05,01,12.80
2013,08,31,05,02,12.80
2013,08,31,05,03,12.80
2013,08,31,05,04,12.80
2013,08,31,05,05,12.80
2013,08,31,05,06,12.80
2013,08,31,05,07,12.80
2013,08,31,05,08,12.80
2013,08,31,05,09,12.80
2013,08,31,05,10,12.80
2013,08,31,05,11,12.80
2013,08,31,05,12,12.70
2013,08,31,05,13,12.70
2013,08,31,05,14,12.70
2013,08,31,05,15,12.70
2013,08,31,05,16,12.70
2013,08,31,05,17,12.70
2013,08,31,05,18,12.70
2013,08,31,05,19,12.70
2013,08,31,05,20,12.70
2013,08,31,05,21,12.70
2013,08,31,05,22,12.70
2013,08,31,05,23,12.70
2013,08,31,05,24,12.70
2013,08,31,05,25,12.70
2013,08,31,05,26,12.70
2013,08,31,05,27,12.70
2013,08,31,05,28,12.70
2013,08,31,05,29,12.70
2013,08,31,05,30,12.70
2013,08,31,05,31,12.70
2013,08,31,05,32,12.70
2013,08,31,05,33,12.70
2013,08,31,05,34,12.70
2013,08,31,05,35,12.70
2013,08,31,05,36,12.70
2013,08,31,05,37,12.70
2013,08,31,05,38,12.80
2013,08,31,05,39,12.80
2013,08,31,05,40,12.80
2013,08,31,05,41,12.80
2013,08,31,05,42,12.80
2013,08,31,05,43,12.80
2013,08,31,05,44,12.80
2013,08,31,05,45,12.80
2013,08,31,05,46,12.90
2013,08,31,05,47,12.90
2013,08,31,05,48,12.90
2013,08,31,05,49,12.90
2013,08,31,05,50,12.90
2013,08,31,05,51,12.90
2013,08,31,05,52,12.90
2013,08,31,05,53,12.90
2013,08,31,05,54,12.90
2013,08,31,05,55,12.90
2013,08,31,05,56,12.90
2013,08,31,05,57,12.90
2013,08,31,05,58,12.80
2013,08,31,05,59,12.80
2013,08,31,06,00,12.80
2013,08,31,06,01,12.80
2013,08,31,06,02,12.80
2013,08,31,06,03,12.80
2013,08,31,06,04,12.80
2013,08,31,06,05,12.80
2013,08,31,06,06,12.80
2013,08,31,06,07,12.80
2013,08,31,06,08,12.80
2013,08,31,06,09,12.80
2013,08,31,06,10,12.80
2013,08,31,06,11,12.80
2013,08,31,06,12,12.80
2013,08,31,06,13,12.80
2013,08,31,06,14,12.80
2013,08,31,06,15,12.80
2013,08,31,06,16,12.80
2013,08,31,06,17,12.80
2013,08,31,06,18,12.80
2013,08,31,06,19,12.80
2013,08,31,06,20,12.80
2013,08,31,06,21,12.80
2013,08,31,06,22,12.80
2013,08,31,06,23,12.80
2013,08,31,06,24,12.80
2013,08,31,06,25,12.80
2013,08,31,06,26,12.80
2013,08,31,06,27,12.80
2013,08,31,06,28,12.80
2013,08,31,06,29,12.80
2013,08,31,06,30,12.80
2013,08,31,06,31,12.80
2013,08,31,06,32,12.80
2013,08,31,06,33,12.80
2013,08,31,06,34,12.80
2013,08,31,06,35,12.80
2013,08,31,06,36,12.80
2013,08,31,06,37,12.80
2013,08,31,06,38,12.80
2013,08,31,06,39,12.80
2013,08,31,06,40,12.80
2013,08,31,06,41,12.70
2013,08,31,06,42,12.70
2013,08,31,06,43,12.70
2013,08,31,06,44,12.70
2013,08,31,06,45,12.70
2013,08,31,06,46,12.70
2013,08,31,06,47,12.70
2013,08,31,06,48,12.70
2013,08,31,06,49,12.70
2013,08,31,06,50,12.60
2013,08,31,06,51,12.60
2013,08,31,06,52,12.60
2013,08,31,06,53,12.60
2013,08,31,06,54,12.60
2013,08,31,06,55,12.60
2013,08,31,06,56,12.60
2013,08,31,06,57,12.60
2013,08,31,06,58,12.60
2013,08,31,06,59,12.60
2013,08,31,07,00,12.60
2013,08,31,07,01,12.50
2013,08,31,07,02,12.50
2013,08,31,07,03,12.50
2013,08,31,07,04,12.50
2013,08,31,07,05,12.50
2013,08,31,07,06,12.50
2013,08,31,07,07,12.50
2013,08,31,07,08,12.60
2013,08,31,07,09,12.60
2013,08,31,07,10,12.60
2013,08,31,07,11,12.60
2013,08,31,07,12,12.60
2013,08,31,07,13,12.60
2013,08,31,07,14,12.70
2013,08,31,07,15,12.70
2013,08,31,07,16,12.70
2013,08,31,07,17,12.70
2013,08,31,07,18,12.70
2013,08,31,07,19,12.70
2013,08,31,07,20,12.70
2013,08,31,07,21,12.70
2013,08,31,07,22,12.70
2013,08,31,07,23,12.70
2013,08,31,07,24,12.70
2013,08,31,07,25,12.70
2013,08,31,07,26,12.70
2013,08,31,07,27,12.70
2013,08,31,07,28,12.70
2013,08,31,07,29,12.70
2013,08,31,07,30,12.70
2013,08,31,07,31,12.80
2013,08,31,07,32,12.80
2013,08,31,07,33,12.80
2013,08,31,07,34,12.80
2013,08,31,07,35,12.80
2013,08,31,07,36,12.80
2013,08,31,07,37,12.80
2013,08,31,07,38,12.80
2013,08,31,07,39,12.80
2013,08,31,07,40,12.80
2013,08,31,07,41,12.90
2013,08,31,07,42,12.90
2013,08,31,07,43,12.90
2013,08,31,07,44,13.00
2013,08,31,07,45,13.00
2013,08,31,07,46,13.00
2013,08,31,07,47,13.10
2013,08,31,07,48,13.10
2013,08,31,07,49,13.10
2013,08,31,07,50,13.10
2013,08,31,07,51,13.10
2013,08,31,07,52,13.20
2013,08,31,07,53,13.20
2013,08,31,07,54,13.20
2013,08,31,07,55,13.20
2013,08,31,07,56,13.20
2013,08,31,07,57,13.20
2013,08,31,07,58,13.20
2013,08,31,07,59,13.30
2013,08,31,08,00,13.30
2013,08,31,08,01,13.30
2013,08,31,08,02,13.30
2013,08,31,08,03,13.30
2013,08,31,08,04,13.30
2013,08,31,08,05,13.30
2013,08,31,08,06,13.30
2013,08,31,08,07,13.30
2013,08,31,08,08,13.30
2013,08,31,08,09,13.30
2013,08,31,08,10,13.40
2013,08,31,08,11,13.40
2013,08,31,08,12,13.40
2013,08,31,08,13,13.40
2013,08,31,08,14,13.50
2013,08,31,08,15,13.50
2013,08,31,08,16,13.50
2013,08,31,08,17,13.50
2013,08,31,08,18,13.50
2013,08,31,08,19,13.50
2013,08,31,08,20,13.60
2013,08,31,08,21,13.60
2013,08,31,08,22,13.60
2013,08,31,08,23,13.60
2013,08,31,08,24,13.60
2013,08,31,08,25,13.60
2013,08,31,08,26,13.60
2013,08,31,08,27,13.70
2013,08,31,08,28,13.70
2013,08,31,08,29,13.70
2013,08,31,08,30,13.70
2013,08,31,08,31,13.70
2013,08,31,08,32,13.70
2013,08,31,08,33,13.70
2013,08,31,08,34,13.70
2013,08,31,08,35,13.70
2013,08,31,08,36,13.70
2013,08,31,08,37,13.80
2013,08,31,08,38,13.80
2013,08,31,08,39,13.80
2013,08,31,08,40,13.90
2013,08,31,08,41,13.90
2013,08,31,08,42,13.90
2013,08,31,08,43,13.90
2013,08,31,08,44,13.90
2013,08,31,08,45,13.90
2013,08,31,08,46,14.00
2013,08,31,08,47,14.00
2013,08,31,08,48,14.10
2013,08,31,08,49,14.10
2013,08,31,08,50,14.20
2013,08,31,08,51,14.20
2013,08,31,08,52,14.20
2013,08,31,08,53,14.20
2013,08,31,08,54,14.30
2013,08,31,08,55,14.20
2013,08,31,08,56,14.30
2013,08,31,08,57,14.30
2013,08,31,08,58,14.30
2013,08,31,08,59,14.40
2013,08,31,09,00,14.40
2013,08,31,09,01,14.40
2013,08,31,09,02,14.40
2013,08,31,09,03,14.40
2013,08,31,09,04,14.40
2013,08,31,09,05,14.40
2013,08,31,09,06,14.40
2013,08,31,09,07,14.40
2013,08,31,09,08,14.50
2013,08,31,09,09,14.50
2013,08,31,09,10,14.50
2013,08,31,09,11,14.50
2013,08,31,09,12,14.50
2013,08,31,09,13,14.60
2013,08,31,09,14,14.60
2013,08,31,09,15,14.70
2013,08,31,09,16,14.70
2013,08,31,09,17,14.70
2013,08,31,09,18,14.70
2013,08,31,09,19,14.70
2013,08,31,09,20,14.80
2013,08,31,09,21,14.80
2013,08,31,09,22,14.70
2013,08,31,09,23,14.70
2013,08,31,09,24,14.70
2013,08,31,09,25,14.70
2013,08,31,09,26,14.70
2013,08,31,09,27,14.80
2013,08,31,09,28,14.80
2013,08,31,09,29,14.80
2013,08,31,09,30,14.90
2013,08,31,09,31,14.90
2013,08,31,09,32,15.00
2013,08,31,09,33,15.00
2013,08,31,09,34,15.00
2013,08,31,09,35,15.10
2013,08,31,09,36,15.10
2013,08,31,09,37,15.20
2013,08,31,09,38,15.20
2013,08,31,09,39,15.30
2013,08,31,09,40,15.40
2013,08,31,09,41,15.40
2013,08,31,09,42,15.40
2013,08,31,09,43,15.40
2013,08,31,09,44,15.50
2013,08,31,09,45,15.50
2013,08,31,09,46,15.60
2013,08,31,09,47,15.60
2013,08,31,09,48,15.70
2013,08,31,09,49,15.80
2013,08,31,09,50,15.80
2013,08,31,09,51,15.80
2013,08,31,09,52,15.80
2013,08,31,09,53,15.90
2013,08,31,09,54,15.90
2013,08,31,09,55,15.90
2013,08,31,09,56,15.90
2013,08,31,09,57,15.90
2013,08,31,09,58,15.90
2013,08,31,09,59,16.10
2013,08,31,10,00,16.10
2013,08,31,10,01,16.10
2013,08,31,10,02,16.20
2013,08,31,10,03,16.20
2013,08,31,10,04,16.30
2013,08,31,10,05,16.30
2013,08,31,10,06,16.30
2013,08,31,10,07,16.30
2013,08,31,10,08,16.30
2013,08,31,10,09,16.40
2013,08,31,10,10,16.40
2013,08,31,10,11,16.40
2013,08,31,10,12,16.40
2013,08,31,10,13,16.40
2013,08,31,10,14,16.60
2013,08,31,10,15,16.70
2013,08,31,10,16,16.70
2013,08,31,10,17,16.70
2013,08,31,10,18,16.70
2013,08,31,10,19,16.80
2013,08,31,10,20,16.80
2013,08,31,10,21,16.80
2013,08,31,10,22,16.90
2013,08,31,10,23,16.90
2013,08,31,10,24,17.00
2013,08,31,10,25,17.10
2013,08,31,10,26,17.20
2013,08,31,10,27,17.30
2013,08,31,10,28,17.30
2013,08,31,10,29,17.30
2013,08,31,10,30,17.20
2013,08,31,10,31,17.20
2013,08,31,10,32,17.10
2013,08,31,10,33,17.00
2013,08,31,10,34,17.00
2013,08,31,10,35,17.00
2013,08,31,10,36,16.90
2013,08,31,10,37,17.00
2013,08,31,10,38,17.00
2013,08,31,10,39,17.00
2013,08,31,10,40,17.00
2013,08,31,10,41,17.00
2013,08,31,10,42,17.00
2013,08,31,10,43,17.00
2013,08,31,10,44,16.90
2013,08,31,10,45,16.90
2013,08,31,10,46,16.90
2013,08,31,10,47,16.80
2013,08,31,10,48,16.80
2013,08,31,10,49,16.80
2013,08,31,10,50,16.80
2013,08,31,10,51,16.80
2013,08,31,10,52,16.80
2013,08,31,10,53,16.90
2013,08,31,10,54,16.90
2013,08,31,10,55,17.00
2013,08,31,10,56,17.10
2013,08,31,10,57,17.20
2013,08,31,10,58,17.20
2013,08,31,10,59,17.20
2013,08,31,11,00,17.10
2013,08,31,11,01,17.10
2013,08,31,11,02,17.10
2013,08,31,11,03,17.10
2013,08,31,11,04,17.20
2013,08,31,11,05,17.30
2013,08,31,11,06,17.30
2013,08,31,11,07,17.30
2013,08,31,11,08,17.30
2013,08,31,11,09,17.30
2013,08,31,11,10,17.30
2013,08,31,11,11,17.30
2013,08,31,11,12,17.30
2013,08,31,11,13,17.40
2013,08,31,11,14,17.40
2013,08,31,11,15,17.50
2013,08,31,11,16,17.50
2013,08,31,11,17,17.60
2013,08,31,11,18,17.70
2013,08,31,11,19,17.70
2013,08,31,11,20,17.80
2013,08,31,11,21,17.80
2013,08,31,11,22,17.80
2013,08,31,11,23,17.90
2013,08,31,11,24,17.90
2013,08,31,11,25,18.00
2013,08,31,11,26,18.20
2013,08,31,11,27,18.20
2013,08,31,11,28,18.20
2013,08,31,11,29,18.20
2013,08,31,11,30,18.20
2013,08,31,11,31,18.20
2013,08,31,11,32,18.10
2013,08,31,11,33,17.90
2013,08,31,11,34,17.90
2013,08,31,11,35,17.80
2013,08,31,11,36,17.80
2013,08,31,11,37,17.80
2013,08,31,11,38,17.80
2013,08,31,11,39,17.70
2013,08,31,11,40,17.80
2013,08,31,11,41,17.90
2013,08,31,11,42,17.90
2013,08,31,11,43,17.90
2013,08,31,11,44,17.90
2013,08,31,11,45,17.90
2013,08,31,11,46,17.90
2013,08,31,11,47,17.90
2013,08,31,11,48,17.90
2013,08,31,11,49,17.90
2013,08,31,11,50,17.90
2013,08,31,11,51,17.90
2013,08,31,11,52,17.90
2013,08,31,11,53,17.90
2013,08,31,11,54,18.00
2013,08,31,11,55,18.10
2013,08,31,11,56,18.20
2013,08,31,11,57,18.20
2013,08,31,11,58,18.30
2013,08,31,11,59,18.40
2013,08,31,12,00,18.50
2013,08,31,12,01,18.50
2013,08,31,12,02,18.60
2013,08,31,12,03,18.70
2013,08,31,12,04,18.80
2013,08,31,12,05,18.80
2013,08,31,12,06,18.90
2013,08,31,12,07,18.90
2013,08,31,12,08,18.90
2013,08,31,12,09,18.70
2013,08,31,12,10,18.60
2013,08,31,12,11,18.50
2013,08,31,12,12,18.50
2013,08,31,12,13,18.60
2013,08,31,12,14,18.70
2013,08,31,12,15,18.70
2013,08,31,12,16,18.60
2013,08,31,12,17,18.60
2013,08,31,12,18,18.60
2013,08,31,12,19,18.50
2013,08,31,12,20,18.50
2013,08,31,12,21,18.40
2013,08,31,12,22,18.30
2013,08,31,12,23,18.20
2013,08,31,12,24,18.20
2013,08,31,12,25,18.30
2013,08,31,12,26,18.40
2013,08,31,12,27,18.50
2013,08,31,12,28,18.50
2013,08,31,12,29,18.60
2013,08,31,12,30,18.60
2013,08,31,12,31,18.60
2013,08,31,12,32,18.70
2013,08,31,12,33,18.70
2013,08,31,12,34,18.70
2013,08,31,12,35,18.70
2013,08,31,12,36,18.70
2013,08,31,12,37,18.80
2013,08,31,12,38,18.80
2013,08,31,12,39,18.90
2013,08,31,12,40,18.90
2013,08,31,12,41,18.90
2013,08,31,12,42,18.90
2013,08,31,12,43,18.90
2013,08,31,12,44,18.90
2013,08,31,12,45,18.90
2013,08,31,12,46,18.80
2013,08,31,12,47,18.80
2013,08,31,12,48,18.80
2013,08,31,12,49,18.90
2013,08,31,12,50,18.90
2013,08,31,12,51,18.90
2013,08,31,12,52,18.90
2013,08,31,12,53,18.90
2013,08,31,12,54,18.90
2013,08,31,12,55,18.90
2013,08,31,12,56,18.90
2013,08,31,12,57,18.90
2013,08,31,12,58,18.90
2013,08,31,12,59,18.80
2013,08,31,13,00,18.80
2013,08,31,13,01,18.90
2013,08,31,13,02,18.90
2013,08,31,13,03,18.90
2013,08,31,13,04,19.00
2013,08,31,13,05,19.10
2013,08,31,13,06,19.10
2013,08,31,13,07,19.10
2013,08,31,13,08,19.10
2013,08,31,13,09,19.20
2013,08,31,13,10,19.20
2013,08,31,13,11,19.30
2013,08,31,13,12,19.30
2013,08,31,13,13,19.40
2013,08,31,13,14,19.40
2013,08,31,13,15,19.40
2013,08,31,13,16,19.40
2013,08,31,13,17,19.40
2013,08,31,13,18,19.30
2013,08,31,13,19,19.30
2013,08,31,13,20,19.30
2013,08,31,13,21,19.30
2013,08,31,13,22,19.30
2013,08,31,13,23,19.30
2013,08,31,13,24,19.30
2013,08,31,13,25,19.30
2013,08,31,13,26,19.40
2013,08,31,13,27,19.40
2013,08,31,13,28,19.40
2013,08,31,13,29,19.40
2013,08,31,13,30,19.40
2013,08,31,13,31,19.50
2013,08,31,13,32,19.60
2013,08,31,13,33,19.60
2013,08,31,13,34,19.60
2013,08,31,13,35,19.60
2013,08,31,13,36,19.60
2013,08,31,13,37,19.50
2013,08,31,13,38,19.50
2013,08,31,13,39,19.50
2013,08,31,13,40,19.60
2013,08,31,13,41,19.60
2013,08,31,13,42,19.60
2013,08,31,13,43,19.60
2013,08,31,13,44,19.50
2013,08,31,13,45,19.50
2013,08,31,13,46,19.50
2013,08,31,13,47,19.60
2013,08,31,13,48,19.60
2013,08,31,13,49,19.60
2013,08,31,13,50,19.60
2013,08,31,13,51,19.60
2013,08,31,13,52,19.60
2013,08,31,13,53,19.50
2013,08,31,13,54,19.50
2013,08,31,13,55,19.50
2013,08,31,13,56,19.40
2013,08,31,13,57,19.40
2013,08,31,13,58,19.40
2013,08,31,13,59,19.50
2013,08,31,14,00,19.60
2013,08,31,14,01,19.70
2013,08,31,14,02,19.80
2013,08,31,14,03,19.70
2013,08,31,14,04,19.80
2013,08,31,14,05,19.80
2013,08,31,14,06,19.90
2013,08,31,14,07,20.10
2013,08,31,14,08,20.20
2013,08,31,14,09,20.20
2013,08,31,14,10,20.20
2013,08,31,14,11,20.20
2013,08,31,14,12,20.20
2013,08,31,14,13,20.10
2013,08,31,14,14,20.00
2013,08,31,14,15,19.90
2013,08,31,14,16,19.80
2013,08,31,14,17,19.80
2013,08,31,14,18,19.80
2013,08,31,14,19,19.70
2013,08,31,14,20,19.80
2013,08,31,14,21,19.80
2013,08,31,14,22,19.90
2013,08,31,14,23,19.90
2013,08,31,14,24,19.90
2013,08,31,14,25,19.90
2013,08,31,14,26,19.90
2013,08,31,14,27,19.90
2013,08,31,14,28,19.90
2013,08,31,14,29,19.90
2013,08,31,14,30,19.90
2013,08,31,14,31,19.90
2013,08,31,14,32,19.90
2013,08,31,14,33,19.90
2013,08,31,14,34,19.90
2013,08,31,14,35,20.00
2013,08,31,14,36,20.10
2013,08,31,14,37,20.20
2013,08,31,14,38,20.40
2013,08,31,14,39,20.50
2013,08,31,14,40,20.50
2013,08,31,14,41,20.70
2013,08,31,14,42,20.80
2013,08,31,14,43,20.80
2013,08,31,14,44,20.90
2013,08,31,14,45,20.90
2013,08,31,14,46,20.80
2013,08,31,14,47,20.70
2013,08,31,14,48,20.70
2013,08,31,14,49,20.60
2013,08,31,14,50,20.60
2013,08,31,14,51,20.60
2013,08,31,14,52,20.60
2013,08,31,14,53,20.60
2013,08,31,14,54,20.60
2013,08,31,14,55,20.50
2013,08,31,14,56,20.50
2013,08,31,14,57,20.50
2013,08,31,14,58,20.50
2013,08,31,14,59,20.60
2013,08,31,15,00,20.70
2013,08,31,15,01,20.70
2013,08,31,15,02,20.70
2013,08,31,15,03,20.70
2013,08,31,15,04,20.70
2013,08,31,15,05,20.70
2013,08,31,15,06,20.80
2013,08,31,15,07,20.80
2013,08,31,15,08,20.80
2013,08,31,15,09,20.80
2013,08,31,15,10,20.80
2013,08,31,15,11,20.90
2013,08,31,15,12,20.90
2013,08,31,15,13,20.90
2013,08,31,15,14,20.90
2013,08,31,15,15,21.00
2013,08,31,15,16,21.00
2013,08,31,15,17,21.10
2013,08,31,15,18,21.10
2013,08,31,15,19,21.10
2013,08,31,15,20,21.10
2013,08,31,15,21,21.10
2013,08,31,15,22,21.10
2013,08,31,15,23,21.20
2013,08,31,15,24,21.20
2013,08,31,15,25,21.20
2013,08,31,15,26,21.20
2013,08,31,15,27,21.20
2013,08,31,15,28,21.30
2013,08,31,15,29,21.30
2013,08,31,15,30,21.30
2013,08,31,15,31,21.40
2013,08,31,15,32,21.50
2013,08,31,15,33,21.60
2013,08,31,15,34,21.60
2013,08,31,15,35,21.60
2013,08,31,15,36,21.60
2013,08,31,15,37,21.50
2013,08,31,15,38,21.40
2013,08,31,15,39,21.40
2013,08,31,15,40,21.40
2013,08,31,15,41,21.30
2013,08,31,15,42,21.30
2013,08,31,15,43,21.30
2013,08,31,15,44,21.30
2013,08,31,15,45,21.30
2013,08,31,15,46,21.30
2013,08,31,15,47,21.30
2013,08,31,15,48,21.30
2013,08,31,15,49,21.40
2013,08,31,15,50,21.40
2013,08,31,15,51,21.40
2013,08,31,15,52,21.50
2013,08,31,15,53,21.40
2013,08,31,15,54,21.40
2013,08,31,15,55,21.40
2013,08,31,15,56,21.40
2013,08,31,15,57,21.40
2013,08,31,15,58,21.40
2013,08,31,15,59,21.40
2013,08,31,16,00,21.40
2013,08,31,16,01,21.40
2013,08,31,16,02,21.40
2013,08,31,16,03,21.40
2013,08,31,16,04,21.40
2013,08,31,16,05,21.40
2013,08,31,16,06,21.50
2013,08,31,16,07,21.60
2013,08,31,16,08,21.60
2013,08,31,16,09,21.70
2013,08,31,16,10,21.70
2013,08,31,16,11,21.80
2013,08,31,16,12,21.80
2013,08,31,16,13,21.80
2013,08,31,16,14,21.80
2013,08,31,16,15,21.90
2013,08,31,16,16,21.90
2013,08,31,16,17,21.90
2013,08,31,16,18,21.80
2013,08,31,16,19,21.70
2013,08,31,16,20,21.70
2013,08,31,16,21,21.70
2013,08,31,16,22,21.70
2013,08,31,16,23,21.70
2013,08,31,16,24,21.70
2013,08,31,16,25,21.70
2013,08,31,16,26,21.70
2013,08,31,16,27,21.60
2013,08,31,16,28,21.60
2013,08,31,16,29,21.60
2013,08,31,16,30,21.60
2013,08,31,16,31,21.60
2013,08,31,16,32,21.60
2013,08,31,16,33,21.60
2013,08,31,16,34,21.60
2013,08,31,16,35,21.60
2013,08,31,16,36,21.60
2013,08,31,16,37,21.60
2013,08,31,16,38,21.60
2013,08,31,16,39,21.70
2013,08,31,16,40,21.70
2013,08,31,16,41,21.80
2013,08,31,16,42,21.80
2013,08,31,16,43,21.80
2013,08,31,16,44,21.70
2013,08,31,16,45,21.70
2013,08,31,16,46,21.70
2013,08,31,16,47,21.70
2013,08,31,16,48,21.70
2013,08,31,16,49,21.70
2013,08,31,16,50,21.70
2013,08,31,16,51,21.70
2013,08,31,16,52,21.70
2013,08,31,16,53,21.80
2013,08,31,16,54,21.80
2013,08,31,16,55,21.70
2013,08,31,16,56,21.70
2013,08,31,16,57,21.70
2013,08,31,16,58,21.70
2013,08,31,16,59,21.80
2013,08,31,17,00,21.70
2013,08,31,17,01,21.70
2013,08,31,17,02,21.70
2013,08,31,17,03,21.80
2013,08,31,17,04,21.80
2013,08,31,17,05,21.80
2013,08,31,17,06,21.90
2013,08,31,17,07,22.00
2013,08,31,17,08,22.00
2013,08,31,17,09,22.10
2013,08,31,17,10,22.20
2013,08,31,17,11,22.20
2013,08,31,17,12,22.20
2013,08,31,17,13,22.20
2013,08,31,17,14,22.20
2013,08,31,17,15,22.10
2013,08,31,17,16,22.10
2013,08,31,17,17,22.10
2013,08,31,17,18,22.00
2013,08,31,17,19,22.00